{"data":{"norad_id":59307,"intl_designator":"2024-056M","name":"STARLINK-31282","alt_names":[],"object_type":"PAYLOAD","status":"ACTIVE","operator":null,"country":"US","launch_date":"2024-03-24","launch_site_code":"AFETR","launch_vehicle":null,"mission":null,"orbit_class":"UNKNOWN","rcs_meters":null,"size_class":null,"mass_kg":null,"dimensions":null,"purposes":["comms"],"wikipedia_slug":null,"has_3d_model":false,"image_url":null,"decayed_at":null,"tle_current":{"epoch":"2026-05-25T01:39:12.323232Z","epoch_age_seconds":75942,"freshness":"FRESH","line1":"1 59307U 24056M   26145.06889263 -.00000815  00000+0 -20104-4 0  9997","line2":"2 59307  42.9995 159.5204 0001214 278.5306  81.5408 15.27569749122836","mean_motion":15.27569749,"eccentricity":0.0001214,"inclination_deg":42.9995,"raan_deg":159.5204,"arg_perigee_deg":278.5306,"mean_anomaly_deg":81.5408,"bstar":-2.0104e-5,"rev_number":12283,"period_min":94.267381305677,"perigee_km":482.24683967461,"apogee_km":483.91274311156,"semimajor_km":6861.2167913931,"source":"CELESTRAK","updated_at":"2026-05-25T13:38:18.899976Z"}}}